Zurück zum Katalog

SL-16 DEB

AktivLEO
NORAD 22344·DEBRIS·🇷🇺 Russia

Gestartet Dec 25, 1992 von Baikonur Cosmodrome

Loading…

Nächste Überflüge (nächste 24 Stunden)

TLE

AktuellSource: Space-Track

Epoche: Sep 14, 2026, 13:28 UTC

1 22344U 92093AH  26257.56159612  .00000728  00000-0  39703-3 0  9997
2 22344  71.0880 336.9649 0100675  33.8314 326.9176 14.12827220721870

Verfolge SL-16 DEB in Echtzeit mit AllMySat

Download on the App Store